GFSFLT2_prec_cthk_036.txt.gz
RH
98 98 98 98 98 98 96 96 94 92 91 88 82 77 74 66 59 57 52 49 54 55 53 56 57 55 56
98 98 98 96 96 94 92 91 88 92 90 81 70 64 54 46 40 37 38 43 45 46 47 47 48 50 50
97 98 94 95 96 91 90 93 87 79 67 57 45 34 27 23 20 18 18 19 21 24 24 25 26 27 29
95 92 92 90 87 76 73 64 54 38 32 25 16 14 11 13 14 15 16 17 20 21 22 22 23 23 25
85 87 81 69 61 50 35 25 19 14 12 6 8 8 9 12 13 15 16 21 24 25 25 27 28 30 31
78 62 46 36 27 20 18 15 11 7 8 7 12 14 16 19 20 22 27 32 34 35 36 37 37 36 36
41 26 20 19 14 12 11 11 10 10 15 17 21 23 26 28 30 32 32 32 33 34 35 37 40 43 44
16 12 11 11 12 12 12 12 14 20 24 25 28 30 32 34 34 34 33 34 35 36 38 43 46 48 49
12 9 9 10 10 12 14 20 25 29 31 33 34 33 35 38 38 38 38 38 38 38 40 43 47 49 50
11 11 12 13 16 22 27 31 34 36 37 37 38 38 36 41 42 41 40 39 38 40 44 46 47 47 45
11 13 17 22 27 31 35 37 39 41 41 43 42 42 43 40 44 44 43 42 43 45 46 43 39 42 45
16 22 27 30 34 38 41 42 44 44 46 47 46 47 49 47 45 45 46 48 47 44 38 37 39 42 51
26 29 33 36 39 43 45 46 46 47 47 49 50 52 53 53 51 48 48 48 43 38 37 38 37 44 60
32 34 38 43 47 48 48 49 50 50 52 54 57 57 56 58 57 55 54 51 40 40 43 38 39 54 69
36 41 46 50 54 55 55 56 56 55 57 61 63 62 62 65 60 59 55 50 44 44 45 38 41 61 75
44 48 53 57 61 63 62 61 61 61 62 66 68 66 65 64 65 58 59 54 46 46 49 45 42 63 80
50 55 60 62 65 67 68 67 68 67 68 72 76 75 71 62 60 65 61 58 49 47 52 49 48 56 81

GFSFLT2_prec_cthk_039.txt.gz
RH
95 93 92 98 99 96 97 97 97 98 97 96 92 89 83 81 75 73 66 60 55 50 46 46 48 53 54
96 98 99 99 97 95 95 97 98 97 95 92 90 79 77 68 59 54 47 42 36 33 31 31 33 36 38
97 97 99 97 95 96 98 98 93 89 76 67 56 47 36 26 23 23 24 23 21 20 20 20 21 22 23
96 98 98 96 97 96 90 80 67 47 32 22 18 13 10 9 9 10 11 11 12 15 18 19 20 21 22
98 97 94 93 95 77 52 32 18 18 13 9 8 7 8 10 11 13 14 16 18 22 24 26 28 29 30
91 87 84 66 42 25 16 12 8 10 8 7 10 12 15 17 19 21 22 24 27 30 31 32 31 31 30
67 48 38 23 15 12 12 12 11 11 13 14 18 20 22 24 26 28 29 30 30 31 31 33 33 34 34
20 15 13 14 16 14 13 13 13 16 20 21 23 26 28 30 30 31 33 34 34 35 34 34 33 36 36
16 15 14 14 14 13 14 17 21 24 26 27 29 30 31 34 35 36 37 38 38 38 36 36 35 34 37
14 12 11 12 14 17 23 26 29 31 31 32 33 34 33 37 39 39 39 39 40 41 42 42 41 39 39
12 13 14 19 24 26 29 32 34 35 36 38 38 39 41 39 44 43 42 44 45 46 46 43 42 40 36
17 21 26 29 30 32 34 36 38 40 42 43 43 44 45 44 44 48 49 50 50 49 47 41 40 41 42
28 30 31 32 34 36 39 42 44 47 48 49 49 49 50 49 48 50 50 54 54 51 47 43 41 44 40
32 33 34 36 40 42 45 48 49 53 55 55 54 54 53 53 54 53 57 55 54 54 51 45 42 45 40
31 34 38 42 46 50 53 55 56 59 61 61 60 59 58 59 59 62 61 58 55 53 53 45 40 43 43
34 39 43 48 54 59 63 65 65 67 68 69 69 66 64 64 67 67 69 63 56 54 54 48 41 44 48
39 44 48 54 62 68 71 73 74 75 78 80 78 74 70 68 73 80 73 66 57 53 53 49 46 46 48

GFSFLT2_prec_cthk_045.txt.gz
RH
73 85 90 95 97 97 97 94 96 98 97 97 96 97 98 96 94 95 94 95 97 97 95 88 83 80 77
70 82 89 90 97 96 98 96 98 98 97 98 97 97 98 97 96 94 93 93 84 77 74 71 67 62 59
76 78 81 83 95 97 98 97 98 98 96 96 96 97 96 95 91 82 63 47 35 31 24 21 21 27 28
76 76 76 77 86 94 93 92 92 92 93 94 91 85 78 57 37 23 15 11 10 9 9 10 10 12 18
83 79 79 82 85 89 90 88 86 85 82 73 50 28 18 12 7 6 7 9 11 12 14 19 23 24 25
59 63 65 64 65 59 52 41 31 20 15 11 9 7 7 8 10 12 14 17 18 20 21 22 27 27 28
46 42 37 30 25 20 18 16 14 14 13 10 10 11 13 15 16 17 19 21 22 24 24 24 27 28 28
18 18 18 19 19 19 18 18 17 15 15 15 19 20 20 21 21 22 23 24 25 26 26 27 27 27 27
20 21 21 21 22 19 18 18 16 17 22 25 25 25 26 26 25 25 26 27 29 30 31 30 29 29 28
21 22 22 21 19 18 16 15 20 23 25 26 26 27 28 29 30 32 33 34 34 35 35 35 35 33 34
20 19 17 16 16 15 18 23 25 27 29 31 31 33 35 36 37 40 41 42 42 43 42 41 41 40 39
18 17 16 17 21 23 24 26 27 30 34 36 36 40 42 44 44 49 49 50 51 52 50 47 45 45 45
20 21 24 27 28 28 29 30 32 36 40 42 43 46 48 50 50 56 61 63 61 60 58 54 52 52 50
27 28 30 31 32 33 34 36 37 42 45 48 50 53 56 59 62 63 73 70 73 72 67 61 60 59 58
31 32 33 35 36 37 38 39 41 45 50 56 58 60 63 64 68 74 75 78 79 78 74 66 65 64 64
34 34 37 38 39 39 42 43 45 50 56 62 65 66 69 71 76 76 81 82 85 82 77 69 64 73 68
36 38 39 40 41 45 47 48 51 55 60 64 70 72 71 70 77 88 84 88 84 79 80 76 70 71 67

GFSFLT2_prec_cthk_048.txt.gz
RH
47 48 53 58 64 74 91 97 97 95 94 97 95 95 96 97 98 97 98 97 97 96 96 97 96 97 97
52 57 60 61 62 67 84 97 95 97 97 96 96 96 97 98 98 98 98 97 96 94 94 92 88 83 80
54 63 62 61 62 65 72 86 88 92 92 92 97 98 98 98 97 97 96 96 91 80 66 59 55 52 48
49 51 57 62 66 72 77 81 82 81 85 90 93 95 96 94 89 81 66 52 39 27 17 12 12 13 17
47 47 48 49 51 49 49 52 51 53 58 61 60 55 44 32 22 15 10 7 7 8 9 11 13 19 21
43 44 44 43 42 40 36 32 28 22 19 17 15 13 12 10 9 9 10 12 15 17 18 21 23 23 25
26 24 22 20 19 19 19 19 18 17 17 14 14 14 14 14 15 18 19 19 18 19 20 21 24 24 26
18 19 20 20 21 19 19 18 16 15 14 12 12 13 15 17 18 20 22 24 25 25 26 26 26 25 26
22 23 23 23 23 19 17 16 14 14 15 17 17 18 19 19 20 21 22 22 23 24 25 27 28 28 28
23 21 20 18 17 16 15 14 16 19 21 22 23 24 24 24 25 27 28 29 29 30 32 34 34 32 31
20 19 18 18 17 16 18 21 23 26 28 28 28 30 31 31 30 33 33 34 35 37 39 40 40 39 38
21 21 22 23 23 25 28 29 29 31 34 35 34 35 36 36 35 38 41 41 40 43 44 46 49 50 49
27 29 31 31 31 31 32 34 35 37 39 40 40 40 41 41 40 42 46 49 52 51 50 54 57 60 58
35 36 38 37 36 36 38 39 40 43 45 46 46 45 46 47 48 48 55 54 59 64 64 64 65 65 64
42 43 43 42 41 40 40 43 44 45 48 51 52 52 53 54 51 55 57 61 66 70 72 71 75 76 73
47 47 47 46 45 44 46 51 52 51 51 51 53 54 55 56 56 57 59 61 68 71 75 74 75 80 79
49 49 49 49 49 51 53 52 51 51 54 56 59 60 58 56 58 63 62 66 66 65 70 72 70 74 77

GFSFLT2_prec_cthk_051.txt.gz
RH
45 43 44 47 50 50 50 54 66 80 87 91 95 97 97 98 96 97 96 96 96 96 97 97 96 97 97
40 38 42 48 51 53 54 57 64 71 78 85 88 94 95 94 95 96 96 96 97 97 98 94 96 97 97
35 39 41 42 44 47 52 56 62 65 71 74 81 85 91 93 95 95 92 94 97 95 95 94 91 82 79
37 39 39 39 39 40 41 42 42 45 47 51 59 66 73 79 81 83 85 86 78 68 59 52 44 38 33
35 36 37 37 37 37 37 37 35 33 33 32 32 31 30 30 29 24 20 17 14 10 8 7 8 12 18
34 34 32 29 25 21 19 18 19 18 17 16 16 14 14 14 14 13 12 12 12 14 14 15 17 23 24
20 20 19 20 19 19 19 19 18 17 15 12 12 12 12 11 10 11 12 13 16 17 19 20 23 25 26
24 23 22 22 20 19 19 17 15 14 13 12 13 14 15 15 15 17 18 19 20 20 21 21 22 24 25
25 24 22 21 20 19 18 17 16 15 17 18 19 20 20 20 21 22 23 22 22 23 23 23 24 24 24
24 22 21 20 20 19 19 19 20 22 23 24 25 27 26 26 26 28 27 27 26 26 27 28 29 29 29
24 23 23 23 23 24 25 28 29 30 30 31 31 34 35 33 32 34 34 33 32 32 32 32 33 34 34
28 28 30 32 34 35 35 35 35 36 39 39 38 40 41 39 35 36 37 38 38 39 37 37 37 37 37
36 38 41 42 42 42 43 42 42 43 44 44 45 47 47 45 41 37 38 41 43 45 47 46 45 45 44
44 47 49 50 49 48 47 47 46 48 49 50 51 50 50 50 47 42 46 47 52 53 52 53 55 56 55
50 53 54 53 52 50 51 51 50 52 55 55 54 54 54 49 43 45 46 48 52 55 55 56 60 65 65
55 55 55 54 53 53 53 53 55 55 54 55 57 58 53 49 50 50 51 53 57 56 56 53 55 61 63
58 57 55 54 54 54 52 51 51 52 58 63 61 56 51 48 48 54 56 61 58 56 55 52 49 52 53

GFSFLT2_prec_cthk_054.txt.gz
RH
43 44 42 38 38 41 41 41 46 51 55 61 67 77 85 92 96 97 97 95 97 97 96 95 97 97 96
43 43 37 35 37 37 39 40 43 45 47 50 56 65 77 82 89 91 93 93 94 94 93 94 94 95 97
44 38 36 37 36 35 34 35 36 38 38 41 44 48 54 62 75 84 87 90 92 91 89 91 93 94 94
34 34 35 35 34 34 33 33 33 34 34 35 37 38 40 46 52 56 61 67 72 74 76 78 76 69 64
32 34 34 34 32 30 27 23 22 21 21 22 23 24 24 24 25 27 28 28 27 23 19 15 12 11 12
27 29 28 26 23 22 21 20 21 18 16 15 14 13 12 11 11 11 11 11 10 10 10 11 12 14 17
24 25 27 25 24 23 22 20 22 20 16 15 13 12 11 11 10 10 10 10 10 11 13 14 15 17 24
26 27 28 27 24 22 21 20 19 20 17 17 18 17 17 17 16 17 18 19 19 19 19 19 20 22 24
29 29 28 25 22 22 22 22 24 24 22 23 24 22 23 23 23 24 24 23 23 23 23 23 25 28 27
31 30 28 27 26 25 25 26 29 32 30 30 30 30 30 30 30 31 31 29 29 30 30 28 28 27 27
35 33 32 31 32 34 36 38 40 40 39 39 39 39 39 38 37 39 37 38 39 38 37 35 33 32 31
37 37 38 40 42 45 46 47 48 48 48 47 46 46 46 45 44 44 45 48 46 44 42 38 36 35 34
40 43 45 47 50 51 52 51 51 51 50 49 50 51 52 53 52 50 49 50 50 48 47 44 41 40 41
46 49 52 54 56 55 54 53 51 49 49 50 53 55 55 53 50 49 52 49 46 44 44 44 47 48 48
51 53 56 57 56 54 47 44 45 47 48 47 45 45 48 52 54 53 47 44 46 47 47 46 49 50 51
56 57 57 54 46 39 38 38 40 41 42 42 46 52 57 53 50 49 46 46 49 51 52 50 50 52 49
56 53 44 36 36 35 36 37 38 40 44 50 56 58 55 49 44 46 47 52 52 54 56 55 52 56 54

GFSFLT2_prec_cthk_060.txt.gz
RH
36 36 35 36 35 36 32 28 28 29 30 33 34 34 37 40 43 49 52 59 65 78 89 96 98 98 98
36 36 36 36 37 32 30 27 26 28 30 33 34 35 35 39 41 43 49 52 56 63 67 80 89 91 96
36 37 36 31 28 28 28 29 30 31 32 33 33 34 36 37 38 40 41 43 46 49 53 57 61 67 79
30 28 27 27 28 28 30 30 31 28 27 26 29 31 32 33 33 34 36 39 40 41 44 47 48 50 52
27 27 26 26 23 22 22 23 24 22 22 23 21 20 19 18 18 18 19 20 24 28 33 37 39 41 42
24 24 24 25 24 22 23 24 25 24 24 22 20 19 18 18 17 17 16 15 13 13 13 13 13 12 12
23 25 27 28 27 28 29 28 27 25 24 23 23 23 23 24 24 24 23 21 19 18 17 15 14 13 13
29 30 31 32 30 28 29 29 29 29 29 29 30 31 33 34 34 34 34 32 31 30 28 27 26 25 24
31 30 30 29 28 28 28 29 30 33 34 36 38 40 42 42 42 41 40 38 36 36 36 36 35 33 32
32 33 32 31 30 31 32 33 35 39 42 44 46 49 48 46 41 34 30 30 31 34 36 39 44 44 43
36 36 35 35 35 36 38 42 44 47 50 52 52 51 43 30 26 27 28 30 32 34 36 38 40 43 44
43 41 40 41 42 44 45 48 50 52 55 54 47 32 28 28 28 28 29 30 32 34 36 38 41 43 43
48 47 46 46 47 48 48 50 51 53 52 38 29 30 31 30 30 30 30 32 34 38 41 43 43 44 43
52 53 52 50 51 51 50 52 51 48 34 31 31 30 30 31 31 30 32 35 37 39 41 42 42 39 36
55 57 56 54 52 52 51 51 48 37 33 31 31 31 31 32 32 33 35 37 38 40 42 41 37 38 36
59 60 60 56 56 55 54 51 40 34 32 32 31 32 34 37 38 37 38 37 37 39 41 41 37 37 38
65 64 63 61 61 60 58 51 38 33 34 34 36 38 42 44 40 42 40 39 37 37 39 41 36 37 41

GFSFLT2_prec_cthk_066.txt.gz
RH
64 56 46 42 41 37 35 33 34 30 25 22 23 28 30 33 35 36 35 38 39 45 50 52 59 64 65
52 45 42 41 39 37 37 36 30 27 26 23 24 27 31 33 35 37 40 41 42 45 46 48 51 53 57
46 42 42 38 36 35 30 27 27 26 26 25 25 27 29 31 34 36 38 41 43 45 46 49 49 49 55
43 41 37 34 31 30 29 28 28 25 22 20 20 22 23 26 29 34 35 35 37 39 43 43 44 45 44
35 33 31 27 25 26 26 24 23 21 22 22 23 23 23 22 22 21 22 23 25 28 31 34 36 38 40
29 29 28 28 27 26 25 25 26 26 28 28 26 24 23 23 22 22 23 23 22 23 24 25 25 25 24
25 27 31 30 30 30 31 31 32 30 27 26 25 25 26 27 28 29 30 32 32 32 33 33 33 31 28
33 33 34 37 36 36 34 32 31 29 28 28 29 31 32 34 35 37 39 40 41 41 40 38 30 24 20
35 39 41 38 37 37 37 36 33 32 32 33 34 36 38 40 42 43 45 46 45 43 33 25 21 20 20
45 44 41 40 42 44 45 43 40 38 38 39 39 40 42 43 45 45 47 46 41 26 22 21 21 21 22
46 45 46 49 53 51 48 45 44 43 43 43 44 44 45 46 47 48 48 40 25 24 24 23 23 23 23
52 52 55 59 58 56 52 50 49 48 48 48 48 49 49 50 51 50 43 28 26 25 24 24 24 25 27
56 60 63 60 59 58 58 55 53 53 53 52 53 53 54 55 54 45 33 27 27 27 27 27 27 29 32
68 69 63 61 59 59 60 58 55 54 55 55 56 56 57 57 53 41 32 30 29 29 28 27 30 35 36
69 65 64 63 60 60 60 61 58 56 57 58 57 58 60 58 54 47 37 32 30 29 29 34 37 38 38
68 66 66 66 63 61 65 67 66 61 60 59 60 61 61 62 60 52 38 33 30 33 37 38 38 38 38
74 70 67 68 70 69 69 72 71 68 66 65 65 65 66 69 66 44 38 36 38 40 41 39 38 38 34

GFSFLT2_prec_cthk_072.txt.gz
RH
70 73 78 78 76 70 70 66 56 50 40 36 34 31 27 26 24 25 28 32 38 37 40 44 54 59 62
82 80 80 69 75 79 73 60 54 48 43 39 32 26 25 24 26 27 29 34 40 42 45 50 52 58 63
75 72 71 70 70 60 56 59 49 44 40 32 29 25 23 23 25 28 33 36 38 41 41 44 49 51 54
73 73 72 73 65 61 57 51 45 35 33 30 28 24 21 21 24 27 29 34 37 39 41 43 41 43 46
70 72 73 64 63 61 49 41 35 35 31 30 28 23 26 23 23 24 25 30 34 37 38 38 40 40 40
73 71 64 54 49 40 32 32 31 27 31 34 31 32 28 29 31 30 27 24 23 23 25 28 33 37 40
70 65 53 48 39 34 28 28 32 37 36 36 37 36 35 34 31 29 28 28 27 26 27 28 29 31 31
53 48 44 42 36 30 31 37 40 41 42 42 40 38 36 36 35 34 34 34 34 35 35 36 38 39 40
41 40 41 39 34 34 39 42 45 45 45 46 44 43 42 42 41 41 42 41 40 41 42 43 43 43 42
40 40 40 37 35 42 47 46 47 48 52 54 54 52 50 48 46 44 43 43 43 44 46 46 46 45 44
41 41 40 44 46 50 49 49 53 61 66 62 58 54 51 48 46 46 45 45 46 47 48 50 50 48 45
49 51 51 52 54 54 55 67 72 69 66 63 60 57 55 52 50 47 47 47 49 50 51 51 50 49 46
56 56 59 60 61 72 79 79 69 65 65 67 64 60 57 55 54 52 50 50 51 51 53 53 51 49 45
59 60 61 66 70 73 73 68 67 64 63 66 68 65 61 59 59 56 54 53 54 56 57 53 50 50 48
61 63 63 64 68 74 74 70 67 65 65 65 68 68 67 66 65 62 60 60 58 59 61 59 57 56 54
58 65 71 78 78 76 73 72 70 68 67 69 72 72 72 69 69 69 66 67 66 65 65 66 67 64 57
73 80 86 84 78 79 80 82 79 73 72 72 71 71 74 74 72 74 77 79 78 78 77 76 77 74 55

GFSFLT2_prec_cthk_075.txt.gz
RH
64 70 74 78 82 84 86 84 79 78 66 60 54 45 47 39 29 27 27 26 29 31 34 35 38 55 64
66 70 77 77 80 77 75 74 75 71 62 61 51 52 46 32 28 27 27 27 31 38 41 42 43 51 56
58 61 67 72 76 77 75 76 72 62 61 55 47 40 32 25 25 26 26 28 33 40 43 46 49 50 56
59 62 65 68 70 74 78 74 67 67 59 52 43 31 31 24 23 26 28 30 34 40 44 44 46 53 54
62 64 67 69 72 75 71 68 67 61 49 43 33 32 25 26 24 24 26 30 34 39 41 42 45 45 42
69 72 73 74 76 70 65 60 48 38 38 36 29 30 35 34 34 32 27 28 29 33 38 38 38 39 41
75 77 77 75 68 56 51 40 36 33 25 27 35 41 40 40 39 37 36 33 30 27 26 25 26 28 31
76 74 70 60 49 45 41 46 37 31 35 42 45 45 45 45 42 39 37 36 35 33 33 32 33 32 32
54 49 45 43 42 46 45 38 30 38 45 47 49 49 49 47 46 44 43 42 41 42 45 45 42 41 41
42 42 44 51 48 44 45 45 48 49 48 53 53 53 55 54 54 53 51 50 48 46 44 44 44 45 45
41 41 44 46 48 47 48 49 50 58 61 69 75 70 64 59 56 53 50 48 47 45 45 46 46 47 47
44 43 43 48 49 51 52 59 71 72 73 76 72 68 64 61 57 54 53 51 48 47 47 48 48 47 47
53 53 54 54 57 61 70 73 76 73 69 66 68 70 67 63 60 58 55 53 52 52 52 51 50 51 50
52 54 55 60 67 73 74 73 69 71 71 68 66 66 69 69 65 61 58 58 57 58 58 56 56 57 57
53 55 57 59 68 71 69 68 73 75 73 68 66 67 68 70 69 65 63 61 60 62 63 64 65 66 64
53 52 53 63 70 72 72 76 77 77 76 73 69 71 71 72 72 68 63 60 59 59 61 67 71 70 70
54 61 71 77 82 83 82 82 83 81 80 79 76 74 72 71 71 69 65 64 66 66 68 73 80 80 77

GFSFLT2_prec_cthk_078.txt.gz
RH
46 49 51 56 64 67 77 77 83 82 80 81 77 71 58 59 56 43 38 32 31 29 34 34 28 30 40
46 46 52 56 58 61 65 70 79 80 79 74 69 63 62 55 52 48 37 36 31 34 34 38 40 48 54
47 50 53 59 61 65 67 71 72 75 80 78 68 63 63 61 56 43 31 27 31 35 37 40 43 50 60
52 52 58 61 63 65 69 70 72 74 75 69 67 66 60 47 36 25 25 26 28 34 38 42 48 56 56
53 59 64 65 66 72 75 75 74 72 70 68 66 61 45 33 23 25 28 30 33 34 39 43 46 52 54
61 65 66 70 75 77 78 76 71 71 70 59 47 41 31 28 29 31 32 29 33 37 38 42 45 46 47
64 67 73 77 80 80 77 70 63 49 40 41 34 31 32 32 39 39 40 40 36 34 32 36 41 43 43
69 72 75 77 76 70 60 53 45 42 36 36 36 30 33 42 45 46 45 44 41 39 36 33 30 29 28
61 62 65 65 58 52 48 45 47 46 45 41 35 40 45 47 49 51 48 46 44 42 40 39 39 38 38
47 43 40 41 43 46 47 49 47 41 41 43 45 51 52 56 56 52 50 50 50 49 48 48 50 50 49
34 35 37 38 40 43 45 48 48 48 48 55 61 68 75 78 75 70 67 62 59 56 53 49 45 45 44
40 39 38 39 39 42 45 48 50 57 61 63 72 73 69 65 65 63 60 58 56 54 51 49 47 47 46
47 47 47 48 48 48 50 58 63 65 69 68 68 67 68 73 70 66 63 61 60 57 54 53 52 51 50
48 50 50 51 54 55 59 67 72 71 70 67 69 69 69 69 71 70 68 66 63 60 59 58 57 56 55
52 50 48 50 51 57 68 71 71 71 69 68 71 72 69 67 66 67 70 70 69 67 65 63 60 57 56
57 57 55 53 53 58 66 72 71 70 70 72 75 75 72 67 68 69 72 72 71 69 65 64 61 56 56
53 55 54 54 57 67 75 75 77 81 83 82 82 79 76 73 73 72 70 70 68 63 61 62 64 64 63

GFSFLT2_prec_cthk_081.txt.gz
RH
42 42 41 42 44 47 49 54 58 64 66 71 72 72 72 71 67 63 62 62 59 41 33 44 36 27 26
38 39 41 46 48 51 54 56 60 63 64 68 72 75 71 71 62 63 68 64 49 36 38 35 46 35 27
38 40 44 47 48 53 55 57 61 63 66 68 69 74 72 69 64 62 62 53 45 42 43 50 47 41 43
41 44 46 48 53 55 59 63 63 65 67 67 69 71 67 66 64 63 59 52 48 48 45 41 41 44 53
46 47 49 52 55 60 63 64 66 70 69 73 69 68 67 64 57 50 35 29 28 32 41 41 46 49 49
48 50 53 58 62 64 63 68 74 75 72 68 69 69 62 52 41 30 23 21 24 33 41 45 49 47 52
52 54 56 59 64 65 69 70 78 72 65 58 54 49 40 33 31 33 34 35 37 39 38 44 47 49 49
55 56 57 62 68 69 71 74 69 57 49 42 38 36 34 33 34 36 39 43 43 44 42 39 38 40 43
55 55 55 60 61 65 60 54 49 48 46 45 42 38 39 42 41 43 44 49 51 49 46 43 41 39 37
54 50 47 47 48 47 45 44 47 47 44 45 43 45 43 45 45 49 54 56 57 52 49 47 46 44 43
36 35 32 34 37 41 44 44 43 44 43 43 44 50 54 63 67 70 73 68 58 54 56 55 55 55 55
32 31 35 36 34 36 38 40 41 43 45 52 58 64 65 65 68 68 65 64 66 67 64 60 55 52 50
35 35 42 41 38 40 40 41 42 47 56 60 63 63 63 64 65 67 67 68 66 63 60 56 54 52 50
37 39 47 48 47 48 48 48 51 59 63 64 64 66 65 65 66 70 73 72 68 65 64 61 59 57 55
41 43 51 49 48 47 48 51 60 68 66 66 66 67 65 65 69 68 68 67 68 69 69 68 66 64 63
47 50 55 54 51 48 48 54 65 65 66 66 65 67 68 69 71 70 66 65 68 72 74 74 72 67 63
55 55 58 57 57 56 55 57 62 69 72 71 73 76 78 77 76 73 69 68 72 75 75 75 71 66 61

GFSFLT2_prec_cthk_084.txt.gz
RH
49 44 41 38 42 40 41 43 45 46 51 52 55 57 61 60 64 59 58 58 60 64 65 59 45 41 36
39 39 39 40 39 39 45 46 47 50 52 55 58 58 61 62 62 62 61 59 63 66 70 58 44 43 42
38 38 40 41 42 43 46 46 50 51 56 57 60 62 64 63 62 63 60 59 61 58 58 60 54 45 40
40 40 40 43 43 45 45 49 52 56 59 62 64 65 65 67 63 60 59 57 57 62 52 46 49 50 49
43 41 43 44 44 47 50 53 56 59 62 65 69 71 68 64 64 61 58 51 47 57 61 63 62 66 69
43 45 46 47 50 50 55 59 61 60 64 69 71 69 66 64 64 55 42 34 31 32 38 43 46 50 48
45 47 48 48 52 54 58 61 64 69 74 73 66 58 59 54 44 34 29 29 28 25 28 42 50 53 56
48 52 50 50 51 56 60 62 64 67 70 62 49 39 38 36 34 32 36 37 39 40 41 46 54 55 56
49 52 57 58 54 60 60 58 58 57 51 47 41 40 38 38 36 38 38 41 44 47 48 48 46 45 47
54 50 55 60 56 56 55 56 47 43 43 43 42 41 41 39 40 44 44 46 50 57 62 58 50 46 45
57 53 49 46 39 42 42 40 40 43 39 38 39 43 43 45 48 52 56 58 60 63 63 60 58 52 50
55 45 38 33 30 34 39 43 40 44 43 41 43 50 54 59 64 63 64 66 69 71 70 63 63 64 66
57 46 38 36 33 38 39 36 36 40 41 44 54 56 60 62 61 61 63 63 62 59 65 68 65 62 59
61 54 48 42 37 42 46 42 43 44 45 55 61 62 62 64 64 63 63 67 69 69 69 66 63 61 59
65 62 52 46 42 46 52 50 48 49 57 65 65 62 63 66 66 64 65 68 71 72 71 69 68 66 64
68 64 56 50 45 48 53 51 49 51 66 67 66 64 65 64 65 68 70 71 68 67 68 69 70 71 71
74 66 60 53 49 55 57 55 51 56 66 69 69 70 70 71 76 75 74 73 71 68 68 71 73 74 75

GFSFLT2_prec_cthk_090.txt.gz
RH
84 78 76 75 73 67 61 54 50 39 39 39 42 43 45 46 49 51 50 50 52 50 47 50 46 45 43
75 74 72 70 63 56 49 42 38 39 40 40 44 46 50 51 52 52 52 53 53 52 49 47 45 49 46
70 69 68 64 56 48 40 39 39 41 42 42 42 44 50 52 54 54 54 56 55 52 51 50 48 55 56
73 71 67 60 48 42 40 40 42 42 43 42 43 45 48 49 52 55 56 57 58 54 55 53 55 64 71
75 72 67 56 45 42 41 41 42 42 44 45 48 48 50 54 56 58 58 59 57 56 55 50 55 66 70
70 67 61 52 45 43 43 45 44 44 46 47 48 50 54 57 60 60 62 57 54 54 52 52 57 68 78
78 66 62 56 46 44 45 46 46 46 48 48 51 55 56 58 55 54 57 56 52 45 40 44 58 70 85
80 71 63 55 49 47 47 49 48 49 51 53 55 57 59 55 48 48 45 41 36 33 31 33 45 59 67
83 82 71 57 53 52 49 51 50 52 53 56 57 57 53 44 31 31 29 27 30 27 29 32 34 41 46
77 71 65 59 58 57 55 52 54 55 54 55 55 50 41 32 30 30 30 30 33 31 35 38 40 43 52
74 70 70 68 63 61 60 59 60 59 57 51 44 42 35 28 31 32 32 36 37 38 40 41 46 49 53
78 79 76 72 72 68 63 64 66 60 53 47 39 38 38 36 33 34 36 39 41 47 50 58 58 55 53
80 85 86 80 77 74 73 68 58 50 48 46 43 35 35 38 37 42 45 49 56 60 61 61 60 59 59
81 89 86 83 85 77 66 58 54 50 47 50 48 42 36 39 48 54 53 53 55 58 60 59 61 65 67
86 92 91 91 86 74 66 61 58 54 50 50 47 42 38 49 54 57 55 55 56 57 59 62 64 59 58
92 96 97 95 87 73 70 68 61 57 53 52 48 42 46 58 61 62 61 60 59 59 60 61 64 72 72
96 91 97 97 90 74 77 72 64 62 54 52 51 49 55 66 65 66 66 61 59 62 63 66 67 70 72

GFSFLT2_prec_cthk_093.txt.gz
RH
93 94 92 91 91 89 83 80 76 69 60 52 44 38 39 39 41 41 40 43 45 42 42 43 44 42 42
94 90 87 83 85 82 80 75 66 58 51 44 37 37 38 39 40 42 46 46 45 44 44 43 43 41 41
98 86 87 79 80 79 75 67 55 47 43 38 37 38 39 41 42 45 46 47 46 45 45 44 43 43 46
88 79 77 76 78 77 72 61 51 44 41 38 38 36 39 40 42 46 46 46 46 46 47 46 44 45 51
86 81 81 80 79 76 70 59 48 43 39 39 40 40 41 42 43 44 47 48 47 49 48 47 43 49 52
89 88 80 86 85 77 66 55 47 42 40 41 43 43 43 44 46 48 50 51 50 50 49 47 43 51 62
83 82 83 82 77 73 65 58 49 46 43 44 47 46 46 46 50 52 51 50 47 47 45 42 40 53 68
89 93 96 92 88 83 73 60 51 47 46 46 47 48 49 50 52 53 50 46 45 39 34 33 34 50 70
90 91 98 97 97 91 81 69 56 53 52 51 50 52 53 55 55 51 42 36 32 26 26 26 28 40 61
77 75 82 86 93 90 84 75 65 56 55 54 57 56 57 57 52 42 30 25 23 23 23 25 28 31 40
78 76 79 77 77 79 75 67 61 60 58 56 58 58 57 46 38 35 30 27 26 26 28 31 32 35 39
73 74 76 80 83 78 73 70 69 66 64 63 61 58 53 48 34 33 33 31 30 32 34 36 36 36 41
64 68 73 82 81 81 79 75 75 71 70 70 63 54 46 46 44 36 36 34 34 37 39 45 49 50 53
65 68 73 76 77 83 84 82 78 75 74 70 57 52 48 44 43 39 39 39 40 50 55 60 61 59 59
68 73 76 75 77 80 85 84 79 77 73 63 57 50 55 46 40 44 50 54 56 57 56 58 58 57 57
77 78 80 78 80 82 85 83 79 69 62 62 57 53 58 54 44 51 55 57 58 58 59 60 58 59 62
84 85 85 81 82 86 88 85 72 68 70 69 63 56 56 53 46 56 60 61 63 65 64 60 61 62 62

GFSFLT2_prec_cthk_099.txt.gz
RH
98 95 96 93 94 92 96 98 99 98 95 95 93 93 89 77 69 59 49 40 37 34 33 33 34 33 31
98 96 97 95 96 98 97 99 99 97 96 96 91 85 81 73 63 53 41 39 35 34 34 34 33 32 30
96 96 98 99 97 97 98 98 98 98 96 95 91 84 75 67 56 46 40 36 34 35 36 33 33 33 32
94 95 93 97 97 98 98 98 97 93 95 93 89 80 72 62 53 44 39 37 38 38 37 37 35 35 34
88 93 92 96 97 96 98 99 98 97 96 92 88 76 69 62 51 46 41 38 39 39 36 38 36 35 34
77 80 84 92 96 93 98 98 97 97 97 93 89 79 72 61 54 47 43 41 41 39 38 39 38 36 33
62 65 66 82 89 88 90 91 95 96 95 94 90 84 71 57 50 46 43 42 43 43 42 42 38 36 34
64 60 60 77 76 88 97 96 94 96 92 89 86 83 69 57 53 50 47 45 45 46 47 43 39 35 36
76 76 71 78 78 80 87 97 98 96 96 91 93 91 81 70 62 56 49 50 51 51 48 43 38 32 41
74 83 77 88 83 90 88 93 91 96 98 97 98 96 90 74 65 59 56 56 55 54 48 42 33 30 39
71 80 83 95 96 89 85 83 81 87 91 93 98 98 92 83 75 68 61 57 55 50 40 33 28 26 32
58 74 88 95 97 99 97 97 99 99 97 95 96 95 87 83 74 66 57 56 55 47 31 27 25 23 24
66 64 84 88 99 98 99 97 95 99 98 98 94 91 79 74 71 61 58 52 48 40 30 28 27 26 26
75 72 72 89 89 99 98 99 99 97 98 93 86 87 83 80 69 64 61 50 42 37 33 32 31 30 31
70 79 80 78 91 94 98 97 93 97 93 90 87 86 83 76 69 66 57 54 41 38 36 36 36 36 35
74 78 88 85 86 93 95 98 94 94 93 91 89 86 82 77 71 66 53 53 44 41 41 41 42 42 44
70 80 90 95 89 87 95 93 90 93 93 91 89 87 85 82 78 70 57 50 44 45 45 45 50 56 58

GFSFLT2_prec_cthk_102.txt.gz
RH
95 95 97 99 98 98 94 93 91 93 93 95 95 94 97 95 95 88 82 70 60 52 46 39 33 33 32
97 98 94 97 98 98 95 95 93 93 95 97 97 97 97 95 93 91 77 64 57 51 42 38 33 34 32
88 92 94 96 97 96 97 97 97 96 98 99 98 96 97 98 92 81 72 65 54 48 39 37 36 32 32
89 91 95 92 94 91 93 95 97 97 97 98 95 96 94 92 88 79 69 61 52 43 39 38 36 35 33
56 58 66 79 92 95 92 98 98 93 98 99 97 98 96 92 85 77 68 59 52 43 39 38 36 34 33
52 49 53 54 67 72 87 93 97 96 98 98 97 96 97 89 86 79 66 57 52 47 42 40 38 35 35
46 52 52 51 61 62 69 78 86 92 95 98 98 95 98 94 87 78 69 61 55 48 43 40 38 36 37
32 44 51 60 59 66 66 68 70 78 81 93 92 93 97 98 95 85 73 61 52 48 46 45 42 42 39
28 31 38 55 69 69 74 68 73 75 84 83 91 94 98 94 90 82 72 62 55 50 50 47 45 42 38
17 28 36 42 66 71 76 72 79 79 70 81 91 98 95 92 91 87 77 67 61 57 54 51 49 42 37
14 18 32 42 51 66 82 82 83 86 85 90 96 98 97 90 97 92 85 77 70 64 58 56 49 42 35
13 14 23 40 51 62 91 99 95 94 98 98 93 87 93 98 97 97 94 83 74 69 64 58 43 35 33
24 22 23 37 53 63 91 97 99 98 98 99 98 98 95 92 94 95 92 85 79 75 67 53 36 29 28
29 28 27 37 61 67 75 94 98 99 99 98 98 99 95 95 99 95 90 84 76 71 62 44 30 28 27
35 34 34 36 65 76 81 85 95 98 98 98 98 98 99 98 98 98 93 85 77 64 57 39 32 29 28
35 39 39 44 66 87 86 92 93 98 98 98 98 99 98 98 98 98 94 87 77 57 53 38 33 33 33
34 40 47 49 66 90 94 92 98 98 99 99 99 98 98 98 96 98 95 87 73 61 49 41 38 38 36

GFSFLT2_prec_cthk_108.txt.gz
RH
95 97 96 98 97 96 96 95 96 94 93 92 92 93 93 93 95 96 97 96 98 96 95 93 89 83 67
98 99 98 98 98 97 99 98 97 97 96 96 95 96 95 95 95 97 97 96 99 97 97 94 88 82 69
97 98 98 99 98 98 99 97 95 96 96 96 95 94 91 92 93 97 97 96 98 95 95 91 87 82 70
88 92 93 96 99 98 98 97 96 94 91 92 94 91 81 82 89 94 95 96 99 97 91 88 84 82 71
50 62 70 82 91 92 90 86 85 86 82 84 91 89 86 79 83 88 92 92 93 94 89 88 83 77 62
16 24 38 50 58 67 68 65 65 68 70 79 83 83 81 81 87 88 89 92 92 93 92 85 81 67 59
18 18 21 23 26 29 43 51 48 45 46 52 64 74 77 79 84 87 86 86 86 85 85 82 76 69 63
28 26 22 17 19 23 26 33 36 38 42 47 50 64 75 75 79 82 86 86 85 85 84 81 79 71 65
30 29 28 24 18 16 15 20 25 34 37 43 50 54 65 70 82 83 83 86 87 88 88 86 82 74 67
29 28 27 23 20 21 25 24 26 28 30 38 43 54 54 56 69 79 82 84 88 88 89 91 90 82 74
37 33 29 29 28 25 23 28 28 35 36 35 40 47 56 61 62 66 87 85 87 87 89 91 89 91 87
42 40 36 35 33 33 32 30 29 28 30 39 43 47 51 56 61 63 73 75 86 85 88 95 97 95 91
38 35 36 39 38 33 30 29 26 23 29 36 40 47 47 56 59 63 67 71 82 87 87 87 97 96 89
44 40 37 35 38 36 29 27 27 26 26 31 38 44 56 49 50 56 73 74 70 79 89 96 97 98 88
61 54 47 41 36 34 31 31 30 28 26 28 36 41 45 59 58 54 66 67 72 95 93 87 98 99 98
80 72 60 54 46 40 40 39 38 36 35 34 40 45 45 52 58 66 63 64 82 80 93 98 98 96 98
90 84 75 70 61 50 47 47 47 43 47 45 47 55 54 57 64 60 56 66 72 85 91 98 98 97 98

GFSFLT2_prec_cthk_111.txt.gz
RH
99 99 98 97 97 95 98 97 97 97 96 96 96 96 92 90 91 91 89 89 91 95 97 99 98 95 92
96 95 98 97 96 98 98 99 98 97 98 99 98 96 95 94 92 91 91 92 94 95 97 98 98 96 96
82 91 94 96 97 98 98 98 99 99 99 98 98 97 97 97 96 95 96 96 96 96 97 98 96 98 96
40 47 73 88 95 95 95 98 98 98 98 99 99 98 97 97 96 95 95 96 97 97 97 98 97 98 94
15 17 25 44 63 83 93 95 95 97 98 98 97 95 95 96 95 92 88 90 95 98 98 97 99 97 95
19 17 14 18 23 43 58 74 85 92 95 92 91 90 89 94 92 90 84 87 95 98 98 98 98 96 91
29 26 23 21 18 16 26 39 53 71 80 77 74 75 81 85 92 90 87 88 91 92 93 93 93 93 91
29 30 32 32 29 24 18 17 22 29 48 63 64 59 60 63 72 83 86 85 90 90 89 87 85 87 85
41 40 34 29 28 29 24 22 20 14 14 26 30 35 44 49 54 62 73 80 84 86 87 86 84 84 83
33 36 37 38 35 32 28 31 32 31 21 23 23 27 28 29 45 54 62 73 80 84 82 82 83 83 85
38 38 36 35 35 34 38 39 38 39 34 35 32 31 32 32 35 49 55 68 76 78 80 80 78 79 86
50 40 36 35 32 31 35 36 36 38 36 35 33 31 34 34 32 37 51 54 64 76 80 81 79 80 82
56 49 45 41 36 34 33 35 36 34 34 34 35 32 37 37 44 39 45 51 54 60 78 80 78 83 85
68 67 63 55 48 42 34 33 33 30 34 35 37 38 35 42 45 43 38 47 50 57 64 67 84 85 82
75 77 73 71 59 50 43 37 34 33 32 34 35 40 45 45 43 51 50 52 48 54 61 66 73 87 82
83 83 81 80 76 68 58 51 45 42 40 37 38 40 43 42 44 47 47 57 56 55 60 63 67 72 76
87 88 88 87 83 77 73 60 53 53 53 48 44 46 43 44 45 43 44 47 63 62 58 60 62 70 77

GFSFLT2_prec_cthk_114.txt.gz
RH
98 97 96 94 95 97 98 98 99 98 99 97 97 96 96 97 96 96 97 96 97 95 92 96 97 96 97
75 93 95 94 96 97 96 97 98 98 97 96 98 97 97 97 97 97 97 95 96 96 95 92 97 93 94
48 53 81 88 89 95 97 98 98 98 98 99 99 99 97 97 98 96 96 96 95 94 94 94 95 97 95
25 35 46 63 74 78 90 96 98 98 98 99 98 98 98 98 98 98 98 99 98 97 96 97 97 98 97
18 15 23 35 50 56 61 72 92 97 97 97 98 98 99 99 99 99 98 98 98 98 96 98 98 98 99
26 28 25 22 20 24 29 34 59 73 89 95 98 97 98 97 98 99 98 97 97 95 95 96 98 99 99
46 38 31 30 30 25 20 23 23 36 50 65 81 94 96 96 96 98 98 98 97 93 92 96 99 99 99
33 39 44 39 35 31 28 24 17 12 19 36 48 61 82 91 89 94 98 97 98 96 97 98 98 99 99
35 35 34 39 44 42 33 29 26 20 13 22 20 32 45 68 75 84 86 91 96 97 97 98 99 99 99
37 38 37 36 37 40 44 43 38 35 36 35 25 28 31 39 51 63 84 86 90 89 94 99 97 94 92
30 30 38 43 40 39 38 39 45 43 37 37 34 27 33 34 32 43 47 73 81 81 83 89 90 94 91
35 34 34 34 43 43 40 38 38 39 41 40 38 34 31 28 23 20 37 44 60 68 67 75 80 83 90
46 44 45 48 48 48 45 42 39 37 34 35 39 40 36 33 31 29 22 29 46 57 63 64 69 78 79
55 53 52 53 56 58 53 47 44 37 35 32 35 37 39 39 35 33 33 38 36 46 58 63 65 71 77
70 67 64 63 62 65 62 59 53 40 36 37 39 43 42 42 43 41 38 38 44 43 47 56 61 62 73
79 77 76 76 75 76 73 68 64 53 39 36 44 45 44 39 39 42 40 40 43 45 50 50 52 58 62
83 83 85 85 88 87 85 81 71 63 55 52 53 53 49 43 39 39 41 42 44 52 57 55 50 48 53

GFSFLT2_prec_cthk_120.txt.gz
RH
26 26 24 20 15 21 37 62 93 95 98 96 97 97 92 88 88 95 94 93 93 93 84 95 95 93 97
27 27 27 27 25 21 16 28 54 74 96 98 92 93 98 95 93 94 94 94 95 99 95 95 94 96 97
25 24 26 28 29 28 26 19 22 43 59 88 97 97 96 97 97 95 99 95 98 97 99 97 98 97 97
24 22 21 22 25 26 30 29 22 20 37 50 77 95 96 97 99 99 98 99 99 98 97 98 98 98 97
25 27 26 24 24 25 25 28 32 26 24 34 41 65 86 94 97 99 99 98 99 99 98 97 96 96 98
25 24 23 24 25 27 28 29 32 34 31 23 34 45 60 76 85 96 97 99 99 99 98 97 98 98 96
28 29 28 29 29 29 34 34 30 29 37 34 26 36 46 54 70 76 93 97 98 98 99 98 98 98 97
29 29 31 33 39 38 33 32 31 27 31 35 33 35 41 47 60 73 73 89 96 97 98 98 97 97 96
32 34 34 36 35 32 30 32 29 27 26 35 35 34 32 37 46 60 66 68 88 94 98 97 97 97 96
36 35 34 33 33 33 36 36 34 31 26 33 33 37 36 31 37 42 49 58 69 82 95 97 98 97 96
37 32 31 31 33 35 37 41 40 40 34 40 37 33 41 40 31 33 37 33 47 59 84 95 98 98 97
39 35 34 35 37 39 42 43 45 46 43 45 43 40 35 37 38 28 34 30 33 38 58 86 98 98 99
46 41 40 40 42 44 46 48 47 48 53 50 48 43 41 37 36 35 31 32 33 29 42 69 94 98 98
51 48 47 46 49 51 50 55 55 52 56 57 52 48 41 38 37 32 37 35 36 31 31 55 81 96 98
62 57 54 57 61 62 61 66 67 61 55 58 59 53 50 43 38 32 34 37 33 32 27 32 64 87 97
76 69 68 69 72 73 72 79 76 71 68 65 62 59 57 48 45 39 36 39 41 36 35 29 35 67 90
77 72 79 83 85 85 83 85 83 78 78 79 74 73 64 56 50 51 44 45 44 46 40 36 27 35 71